www.pogodaiklimat.ru

Погода и климат >> Архив погоды >> Германия >> Leuchtturm Kiel


ПОГОДА в Leuchtturm Kiel

  • Прогноз погоды в Leuchtturm Kiel
  • Монитор погоды в Leuchtturm Kiel
  • Климат города

АРХИВ ПОГОДЫ в Leuchtturm Kiel

Время (UTC), дата Ветер
(напр.,м/с)
 
Видим.   Явления Облачность Т
(С)
Тd
(С)
f
(%)
Тe
(С)
Тes
(С)
Комфортность P
(гПа)
Po
(гПа)
Тmin
(С)
Tmax
(С)
R
(мм)
R24
(мм)
S
(см)
16 10.07 В 8 н/о н/о +17.1 +11.3 69 +16 +16 1017.5 1014.5
17 10.07 СВ 6 н/о н/о +17.2 +12.5 74 +16 +16 1017.5 1014.4
18 10.07 СВ 8 н/о н/о +17.3 +12.6 74 +16 +16 1017.4 1014.4 +12.1 +17.5
20 10.07 СВ 7 н/о н/о +17.2 +14.0 81 +16 +16 1018.2 1015.1
19 10.07 СВ 9 н/о н/о +16.9 +13.3 79 +15 +15 1017.6 1014.5
21 10.07 С 10 н/о н/о +17.3 +14.6 84 +16 +16 1017.9 1014.9
22 10.07 СВ 11
{14}
н/о н/о +17.3 +15.2 87 +16 +16 1018.2 1015.1
23 10.07 С 12
{14}
н/о н/о +17.7 +14.7 83 +16 +16 1017.6 1014.5
00 11.07 СВ 11
{14}
н/о н/о +17.4 +14.9 85 +16 +16 1017.3 1014.2
02 11.07 СВ 10 н/о н/о +17.4 +15.3 87 +16 +16 1017.0 1013.9
01 11.07 СВ 9 н/о н/о +17.6 +15.7 89 +16 +16 1017.3 1014.2
03 11.07 СВ 9
{13}
н/о н/о +17.1 +15.1 88 +16 +16 1016.7 1013.6
04 11.07 СВ 11 н/о н/о +17.6 +14.9 84 +16 +16 1016.4 1013.3
05 11.07 СВ 10 н/о н/о +17.6 +15.2 86 +16 +16 1016.3 1013.3
06 11.07 СВ 10
{13}
н/о н/о +18.0 +14.9 82 +17 +17 1016.3 1013.2 +16.6 +18.0
08 11.07 СВ 10 н/о н/о +18.2 +14.9 81 +17 +17 1016.5 1013.5
07 11.07 СВ 11
{13}
н/о н/о +18.2 +14.7 80 +17 +17 1016.7 1013.6
09 11.07 СВ 8
{13}
н/о н/о +18.5 +14.5 78 +18 +18 1016.6 1013.5
10 11.07 СВ 8 н/о н/о +18.8 +14.7 77 +19 +19 1016.7 1013.6
11 11.07 СВ 7 н/о н/о +18.9 +14.3 75 +19 +19 1016.4 1013.3
12 11.07 СВ 6
{13}
н/о н/о +19.2 +14.4 74 +20 +20 1016.3 1013.2
14 11.07 СВ 1 н/о н/о +19.4 +14.6 74 +22 +22 комфорт 1016.1 1013.1
13 11.07 В 3 н/о н/о +18.7 +15.3 81 +20 +20 1016.3 1013.3
15 11.07 ЮВ 3 н/о н/о +18.6 +14.7 78 +20 +20 1016.0 1013.0
16 11.07 ЮВ 2 н/о н/о +19.1 +14.4 74 +21 +21 комфорт 1016.1 1013.0
17 11.07 Ю 2 н/о н/о +19.2 +14.7 75 +21 +21 комфорт 1015.7 1012.6
18 11.07 Ю 1 н/о н/о +19.1 +15.4 79 +22 +22 комфорт 1015.9 1012.8 +17.5 +20.8
20 11.07 СВ 1 н/о н/о +18.8 +14.1 74 +21 +21 комфорт 1016.2 1013.2
19 11.07 В 3 н/о н/о +19.3 +14.1 72 +21 +21 комфорт 1016.1 1013.0
21 11.07 С 4 н/о н/о +19.4 +14.3 72 +21 +21 комфорт 1016.0 1012.9
22 11.07 С 4 н/о н/о +19.2 +15.9 81 +21 +21 комфорт 1015.9 1012.9
23 11.07 СВ 3 н/о н/о +18.8 +16.6 87 +20 +20 1016.3 1013.2
00 12.07 СВ 3 н/о н/о +18.5 +16.8 90 +19 +19 1016.3 1013.2
02 12.07 СВ 3 н/о н/о +18.4 +16.8 90 +19 +19 1015.8 1012.7
01 12.07 С 4 н/о н/о +18.3 +16.8 91 +19 +19 1015.9 1012.8
03 12.07 С 3 н/о н/о +18.3 +16.7 90 +19 +19 1015.7 1012.6
04 12.07 С 4 н/о н/о +18.3 +16.8 91 +19 +19 1015.7 1012.6
05 12.07 СЗ 4 н/о н/о +19.3 +16.8 85 +21 +21 комфорт 1015.5 1012.4
06 12.07 С 3 н/о н/о +20.4 +17.7 84 +24 +24 комфорт 1015.9 1012.9 +17.9 +20.2
08 12.07 СЗ 3 н/о н/о +20.8 +16.6 77 +25 +25 комфорт 1016.1 1013.1
07 12.07 СЗ 4 н/о н/о +20.3 +16.9 81 +23 +23 комфорт 1016.1 1013.1
09 12.07 СЗ 4 н/о н/о +20.8 +16.8 78 +25 +25 комфорт 1015.9 1012.9
10 12.07 СЗ 5 н/о н/о +21.7 +15.1 66 +25 +25 комфорт 1015.8 1012.8
11 12.07 СЗ 5 н/о н/о +23.3 +12.8 52 +26 +26 жарко 1015.9 1012.9
12 12.07 СЗ 5 н/о н/о +23.6 +12.6 50 +26 +26 жарко 1015.7 1012.6
14 12.07 СЗ 5 н/о н/о +25.5 +9.8 37 +26 +26 жарко 1015.2 1012.2
13 12.07 СЗ 5 н/о н/о +24.9 +10.4 40 +26 +26 жарко 1015.4 1012.4
15 12.07 СЗ 5 н/о н/о +26.1 +9.4 35 +27 +27 жарко 1014.9 1011.9
16 12.07 З 7 н/о н/о +23.2 +16.3 65 +28 +28 душно 1014.9 1011.8
17 12.07 СЗ 6 н/о н/о +24.5 +13.4 50 +27 +27 жарко 1015.0 1012.0
18 12.07 З 8 н/о н/о +23.0 +13.8 56 +26 +26 жарко 1015.2 1012.2 +19.2 +26.2
20 12.07 З 8 н/о н/о +21.1 +13.6 62 +24 +24 комфорт 1016.2 1013.1
19 12.07 З 5 н/о н/о +22.0 +15.4 66 +26 +26 душно 1015.7 1012.7
21 12.07 З 7 н/о н/о +19.4 +14.7 74 +20 +20 1016.6 1013.5
22 12.07 З 8 н/о н/о +17.2 +15.6 90 +16 +16 1016.8 1013.7
23 12.07 З 9 н/о н/о +16.3 +14.7 90 +15 +15 1016.8 1013.7
00 13.07 З 9 н/о н/о +15.6 +14.6 94 +14 +14 1016.6 1013.5
02 13.07 З 9 н/о н/о +15.1 +14.6 97 +13 +13 1016.9 1013.8
01 13.07 З 9 н/о н/о +14.9 +14.3 96 +12 +12 1016.9 1013.8
03 13.07 З 8 н/о н/о +14.5 +14.2 98 +12 +12 1017.0 1013.8
04 13.07 З 8 н/о н/о +14.8 +13.9 94 +13 +13 1017.1 1014.0
05 13.07 З 8 н/о н/о +15.4 +14.0 91 +13 +13 1017.3 1014.2
06 13.07 З 9 н/о н/о +15.9 +14.0 88 +14 +14 1017.4 1014.3 +14.3 +24.6
08 13.07 З 7 н/о н/о +17.2 +14.0 81 +16 +16 1017.7 1014.6
07 13.07 З 8 н/о н/о +16.7 +14.4 86 +15 +15 1017.6 1014.5
09 13.07 З 6 н/о н/о +18.3 +14.1 76 +18 +18 1017.8 1014.7
10 13.07 З 6 н/о н/о +19.6 +13.6 68 +21 +21 комфорт 1018.1 1015.1
11 13.07 З 6 н/о н/о +20.7 +13.0 61 +23 +23 комфорт 1018.1 1015.1
12 13.07 З 3 н/о н/о +21.2 +13.9 63 +24 +24 комфорт 1018.3 1015.2
14 13.07 З 8 н/о н/о +21.5 +14.7 65 +25 +25 комфорт 1017.9 1014.8
13 13.07 З 3 н/о н/о +21.7 +13.8 61 +25 +25 комфорт 1018.0 1014.9
15 13.07 З 9 н/о н/о +21.7 +13.8 61 +25 +25 комфорт 1017.8 1014.8
16 13.07 З 9 н/о н/о +21.0 +13.2 61 +23 +23 комфорт 1018.0 1014.9
17 13.07 З 9 н/о н/о +19.8 +13.5 67 +21 +21 комфорт 1018.1 1015.0
18 13.07 З 9 н/о н/о +18.7 +13.0 69 +19 +19 1018.4 1015.3 +15.4 +22.8
20 13.07 З 8 н/о н/о +16.2 +12.0 76 +15 +15 1019.4 1016.2
19 13.07 З 9 н/о н/о +17.4 +12.4 72 +16 +16 1018.8 1015.7
21 13.07 З 8 н/о н/о +15.7 +11.5 76 +14 +14 1019.6 1016.5
22 13.07 З 8 н/о н/о +14.9 +11.8 82 +13 +13 1019.7 1016.6
23 13.07 З 8 н/о н/о +14.8 +11.6 81 +13 +13 1019.7 1016.6
00 14.07 З 8 н/о н/о +14.6 +11.3 81 +12 +12 1019.5 1016.4
02 14.07 СЗ 9 н/о н/о +14.9 +10.8 76 +13 +13 1019.6 1016.5
01 14.07 СЗ 9 н/о н/о +14.5 +11.2 81 +12 +12 1019.6 1016.5
03 14.07 СЗ 9
{13}
н/о н/о +14.6 +10.5 76 +12 +12 1019.5 1016.4
04 14.07 СЗ 10
{13}
н/о н/о +15.0 +10.4 74 +13 +13 1019.4 1016.3
05 14.07 СЗ 8 н/о н/о +14.8 +10.7 76 +13 +13 1019.5 1016.3
06 14.07 СЗ 8
{13}
н/о н/о +14.8 +10.3 74 +13 +13 1019.8 1016.7 +14.3 +19.9
08 14.07 СЗ 6 н/о н/о +15.3 +10.7 74 +14 +14 1020.3 1017.2
07 14.07 СЗ 5 н/о н/о +15.1 +10.7 75 +14 +14 1020.1 1017.0
09 14.07 З 6 н/о н/о +15.3 +10.8 75 +14 +14 1020.7 1017.5
10 14.07 З 5 н/о н/о +15.7 +10.6 72 +15 +15 1020.6 1017.5
11 14.07 СЗ 6 н/о н/о +16.1 +11.4 74 +15 +15 1020.4 1017.3
12 14.07 З 5 н/о н/о +16.4 +10.8 69 +16 +16 1020.1 1017.0
14 14.07 З 7 н/о н/о +17.2 +11.2 68 +16 +16 1019.4 1016.4
13 14.07 З 7 н/о н/о +16.6 +11.0 69 +15 +15 1019.8 1016.7
15 14.07 З 7 н/о н/о +17.8 +11.3 66 +17 +17 1019.0 1015.9
16 14.07 З 7 н/о н/о +18.0 +10.8 63 +17 +17 1018.7 1015.6
17 14.07 З 6 н/о н/о +18.3 +10.8 62 +18 +18 1018.7 1015.6
18 14.07 З 7 н/о н/о +18.4 +10.2 59 +18 +18 1018.5 1015.4 +14.6 +18.6
20 14.07 З 7 н/о н/о +17.3 +11.3 68 +16 +16 1018.7 1015.6
19 14.07 З 5 н/о н/о +18.2 +11.0 63 +18 +18 1018.5 1015.4
21 14.07 З 8 н/о н/о +16.6 +11.8 73 +15 +15 1018.8 1015.7
22 14.07 СЗ 7 н/о н/о +15.9 +11.8 77 +14 +14 1019.0 1015.9
23 14.07 СЗ 8 н/о н/о +15.4 +12.3 82 +13 +13 1019.0 1015.9
00 15.07 СЗ 6 н/о н/о +14.9 +12.4 85 +13 +13 1018.8 1015.7
02 15.07 СЗ 5 н/о н/о +15.0 +13.0 88 +14 +14 1018.9 1015.8
01 15.07 СЗ 5 н/о н/о +15.2 +12.9 86 +14 +14 1018.8 1015.7
03 15.07 З 5 н/о н/о +14.7 +13.0 90 +13 +13 1018.8 1015.7
04 15.07 СЗ 5 н/о н/о +14.9 +13.3 90 +13 +13 1018.6 1015.5
05 15.07 З 5 н/о н/о +15.0 +13.3 90 +14 +14 1018.7 1015.6
06 15.07 З 4 н/о н/о +15.3 +12.8 85 +14 +14 1019.0 1015.8 +14.6 +18.6
08 15.07 СЗ 2 н/о н/о +18.7 +12.8 69 +20 +20 1019.3 1016.2
07 15.07 З 4 н/о н/о +15.9 +12.6 81 +15 +15 1019.1 1016.0
09 15.07 З 1 н/о н/о +18.6 +11.2 62 +20 +20 1019.3 1016.2
10 15.07 СВ 1 н/о н/о +18.9 +12.3 66 +21 +21 комфорт 1019.1 1016.0
12 15.07 СВ 1 н/о н/о +19.9 +12.9 64 +23 +23 комфорт 1018.7 1015.6
13 15.07 В 2 н/о н/о +19.6 +13.2 67 +22 +22 комфорт 1018.3 1015.2
14 15.07 В 2 н/о н/о +19.9 +12.7 63 +22 +22 комфорт 1017.9 1014.8
15 15.07 В 2 н/о н/о +20.3 +13.9 67 +23 +23 комфорт 1017.5 1014.5
16 15.07 В 3 н/о н/о +20.3 +14.5 69 +23 +23 комфорт 1017.3 1014.2
17 15.07 В 2 н/о н/о +20.2 +14.8 71 +23 +23 комфорт 1016.8 1013.7
18 15.07 В 1 н/о н/о +21.0 +11.7 55 +24 +24 комфорт 1016.5 1013.5 +14.8 +21.1
19 15.07 ЮВ 1 н/о н/о +21.2 +11.9 55 +23 +23 комфорт 1016.6 1013.6
20 15.07 ЮВ 1 н/о н/о +21.1 +11.4 54 +23 +23 комфорт 1017.0 1013.9
21 15.07 СЗ 2 н/о н/о +20.5 +12.5 60 +23 +23 комфорт 1017.2 1014.1
22 15.07 СЗ 5 н/о н/о +19.7 +13.7 68 +21 +21 комфорт 1017.2 1014.2
23 15.07 СЗ 6 н/о н/о +19.1 +13.4 70 +20 +20 1017.1 1014.1
00 16.07 СЗ 6 н/о н/о +18.4 +13.9 75 +18 +18 1017.0 1013.9
01 16.07 С 6 н/о н/о +18.4 +14.4 78 +18 +18 1016.7 1013.7
02 16.07 С 5 н/о н/о +18.2 +14.8 81 +18 +18 1016.7 1013.6
03 16.07 С 3 н/о н/о +17.9 +15.0 83 +18 +18 1016.5 1013.4
04 16.07 С 2 н/о н/о +18.3 +16.3 88 +19 +19 1016.6 1013.5
05 16.07 В 2 н/о н/о +19.1 +16.3 84 +21 +21 комфорт 1016.7 1013.6
06 16.07 В 5 н/о н/о +19.4 +14.8 75 +21 +21 комфорт 1016.5 1013.5 +17.8 +21.4
07 16.07 В 3 н/о н/о +19.1 +15.7 81 +21 +21 комфорт 1016.6 1013.5
08 16.07 В 3 н/о н/о +19.4 +15.6 79 +21 +21 комфорт 1016.4 1013.3
09 16.07 СВ 2 н/о н/о +20.1 +15.8 76 +23 +23 комфорт 1016.4 1013.3
10 16.07 СВ 1 н/о н/о +20.7 +15.5 72 +25 +25 комфорт 1016.3 1013.3
11 16.07 СЗ 1 н/о н/о +22.7 +15.1 62 +27 +27 душно 1016.1 1013.1
12 16.07 СЗ 1 н/о н/о +22.2 +14.2 60 +25 +25 комфорт 1015.9 1012.9
13 16.07 С 1 н/о н/о +23.3 +15.9 63 +28 +28 душно 1015.4 1012.4
14 16.07 С 1 н/о н/о +23.8 +16.6 64 +27 +27 жарко 1014.8 1011.8
15 16.07 С 1 н/о н/о +23.7 +16.7 65 +27 +27 жарко 1014.4 1011.4
16 16.07 С 1 н/о н/о +24.7 +17.6 65 +29 +29 душно 1014.1 1011.1
17 16.07 СЗ 2 н/о н/о +23.7 +14.7 57 +26 +26 жарко 1013.5 1010.5
18 16.07 С 1 н/о н/о +24.4 +15.7 58 +27 +27 жарко 1013.5 1010.5 +19.0 +25.9
19 16.07 СЗ 1 н/о н/о +23.7 +16.0 62 +27 +27 жарко 1013.6 1010.6
20 16.07 З 1 н/о н/о +21.8 +16.1 70 +26 +26 душно 1013.9 1010.9
21 16.07 С 1 н/о н/о +22.1 +13.2 57 +25 +25 комфорт 1013.7 1010.7
22 16.07 С 2 н/о н/о +22.1 +13.6 59 +25 +25 комфорт 1013.8 1010.7
23 16.07 СЗ 2 н/о н/о +21.6 +14.5 64 +25 +25 комфорт 1013.8 1010.7
00 17.07 С 3 н/о н/о +21.5 +13.3 60 +24 +24 комфорт 1013.6 1010.5
01 17.07 З 1 н/о н/о +20.2 +17.1 82 +24 +24 комфорт 1013.4 1010.3
02 17.07 З 4 н/о н/о +19.6 +17.4 87 +22 +22 комфорт 1013.1 1010.1
03 17.07 СЗ 3 н/о н/о +19.5 +17.6 89 +22 +22 комфорт 1013.1 1010.1
04 17.07 СЗ 3 н/о н/о +19.4 +17.9 91 +22 +22 комфорт 1012.9 1009.9
05 17.07 СЗ 2 н/о н/о +21.4 +18.0 81 +26 +26 душно 1013.0 1010.0
06 17.07 СЗ 2 н/о н/о +20.4 +17.1 81 +24 +24 комфорт 1013.1 1010.1 +19.3 +24.6
07 17.07 СЗ 2 н/о н/о +21.3 +17.6 79 +25 +25 комфорт 1013.3 1010.3
08 17.07 СЗ 2 н/о н/о +22.7 +18.8 79 +29 +29 очень
душно
1013.4 1010.3
09 17.07 СЗ 1 н/о н/о +24.0 +17.4 67 +28 +28 душно 1013.3 1010.3
10 17.07 С 2 н/о н/о +21.6 +15.6 69 +25 +25 комфорт 1013.4 1010.3
11 17.07 СВ 2 н/о н/о +22.2 +16.4 70 +26 +26 душно 1013.3 1010.3
12 17.07 В 3 н/о н/о +21.4 +17.5 78 +25 +25 комфорт 1013.2 1010.2
13 17.07 В 3 н/о н/о +22.0 +17.6 76 +27 +27 душно 1013.0 1010.0
14 17.07 СВ 4 н/о н/о +23.6 +14.2 56 +26 +26 жарко 1012.6 1009.6

 

Местоположение метеостанции Leuchtturm Kiel (Германия): широта 54.50 долгота 10.28 высота над уровнем моря 21 м.

В архиве по умолчанию представлена погода в Leuchtturm Kiel за последнюю неделю. Архивные данные за месяц целиком и за предыдущие месяцы, начиная с января 2011 года, Вы можете получить, выбрав интересующий диапазон дат из раскрывающегося списка и нажав кнопку "Ввод!".


*Определитесь, кто Вы:
робот инопланетянин человек

Внимание! Время в таблицах - всемирное. Для получения местного времени необходимо прибавить поправку, которая в Leuchtturm Kiel равна 1 ч.

Смотрите также архив погоды в соседних городах и на ближайших метеорологических станциях:

Погода в Kiel-Holtenau (Германия) (16 км)
Погода в Olpenitz (Германия) (25 км)
Погода в Doernick (Германия) (37 км)
Погода в Kegnaes (Дания) (43 км)
Погода в Schleswig (Германия) (47 км)
Погода в Schleswig Airport (Германия) (49 км)
Погода в Westermarkelsdorf (Германия) (51 км)
Погода в Hohn (Германия) (53 км)
Погода в Langoe (Дания) (58 км)
Погода в Taasinge (Дания) (61 км)

Пояснения к столбцам:

Ветер - указаны скорость ветра в м/с - средняя за 10 мин, порывы в срок и между сроками (в фигурных скобках) и направление, откуда дует ветер: С - северный, СВ - северо-восточный, В - восточный, ЮВ - юго-восточный, Ю - южный, ЮЗ - юго-западный, З - западный, СЗ - северо-западный.
Видимость - горизонтальная дальность видимости в метрах или километрах. При видимости от 1 до 10 км при отсутствии осадков обычно наблюдается дымка, при ухудшении видимости до 1 км и менее - туман. В сухую погоду видимость может ухудшаться дымом, пылью или мглою.
Явления - указаны атмосферные явления, наблюдавшиеся в срок или в последний час перед сроком; фигурными скобками обозначены явления, наблюдавшиеся между сроками (за 1-3 часа до срока); квадратными скобками обозначены град или гололедные отложения с указанием их диаметра в мм.
Облачность - указаны через наклонную черту общая и нижняя облачность в баллах и высота нижней границы облаков в метрах; квадратными скобками обозначены формы облаков: Ci - перистые, Cs - перисто-слоистые, Cc - перисто-кучевые, Ac - высококучевые, As - высокослоистые, Sc - слоисто-кучевые, Ns - слоисто-дождевые, Cu - кучевые, Cb - кучево-дождевые. Подробнее классификацию облаков см. в Атласе облаков (PDF).
T - Температура воздуха - температура, измеренная на высоте 2 м над землей.
Td - Температура точки росы - температура, при понижении до которой содержащийся в воздухе водяной пар достигнет насыщения.
f - Относительная влажность воздуха - влажноcть воздуха, измеренная на высоте 2 м над землей.
Te - Эффективная температура - температура, которую ощущает одетый по сезону человек в тени. Характеристика душности погоды. При расчете учитывается влияние влажности воздуха и скорости ветра на теплоощущения человека.
Tes - Эффективная температура на солнце - температура, которую ощущает человек, с поправкой на солнечный нагрев. Характеристика знойности погоды. Зависит от высоты солнца над горизонтом, облачности и скорости ветра. Ночью, в пасмурную погоду, а также при ветре 12 м/с и более поправка равна нулю.
P - Атмосферное давление - приведенное к уровню моря атмосферное давление.
Po - Атмосферное давление - измеренное на уровне метеостанции атмосферное давление.
Tmin - Минимальная температура - минимум температуры воздуха на высоте 2 м над землей.
Tmax - Максимальная температура - максимум температуры воздуха на высоте 2 м над землей.
R - Количество осадков - Количество выпавших осадков за период времени, мм. При наведении курсора мыши на число - период времени, за который выпало указанное количество осадков.
R24 - Количество осадков - Количество выпавших осадков за 24 часа, мм.
S - Снежный покров - Высота снежного покрова, см. При наведении курсора мыши на число - состояние снежного покрова и степень покрытия местности в баллах.